Home > Weather > Amsterdam Island > Past weeks

Flag for French Southern Territories Weather for the Past 2 Weeks in Amsterdam Island, French Southern Territories

Now
65 °F

Mild.


Feels Like: 65 °F
Forecast: 60 / 63 °F
Wind: N/A

Location: Martin De Vivies Ile Amsterdam

Current Time: Apr 30, 2016 at 11:25:31 AM

Latest Report: Apr 30, 2016 at 10:00 AM


Visibility: N/A

Pressure: 30.57 "Hg

Humidity: 83%

Dew Point: 60 °F

Location of Amsterdam IslandLocation

Historic Weather in Amsterdam Island — Graph

°F

Amsterdam Island Temperature Yesterday

Maximum temperature yesterday: 67 °F (at 12:00 PM)
Minimum temperature yesterday: 59 °F (at 11:00 PM)
Average temperature yesterday: 63 °F

High & Low Weather Summary for the Past Weeks

 TemperatureHumidityPressure
High67 °F (Apr 29, 12:00 PM)95% (Apr 30, 1:00 AM)30.55 "Hg (Apr 30, 1:00 AM)
Low49 °F (Apr 25, 1:00 AM)51% (Apr 24, 10:00 AM)29.91 "Hg (Apr 19, 3:00 PM)
Average59 °F79%30.29 "Hg
* Reported Apr 15 7:00 AM — Apr 30 7:00 AM, Amsterdam Island, Weather by CustomWeather, © 2016

Note: Actual official high and low records may vary slightly from our data, if they occured in-between our weather recording intervals... More about our weather records

Advertising

Amsterdam Island Weather History for the Previous 24 Hours

Scroll right to see more
 ConditionsComfort  
Time TempWeatherWind HumidityBarometerVisibility
7:00 AM
Sat, Apr 30
61 °FCool.N/A94%30.55 "HgN/A
6:00 AM59 °FCool.N/A95%30.54 "HgN/A
4:00 AM60 °FCool.N/A95%30.54 "HgN/A
1:00 AM60 °FCool.N/A95%30.52 "HgN/A
12:00 AM59 °FCool.N/A94%30.52 "HgN/A
11:00 PM
Fri, Apr 29
59 °FCool.N/A94%30.52 "HgN/A
10:00 PM60 °FCool.N/A94%30.51 "HgN/A
9:00 PM62 °FCool.N/A94%30.50 "HgN/A
8:00 PM61 °FCool.N/A93%30.49 "HgN/A
7:00 PM62 °FCool.N/A94%30.48 "HgN/A
6:00 PM62 °FMild.N/A92%30.47 "HgN/A
5:00 PM63 °FMild.N/A89%30.46 "HgN/A
4:00 PM65 °FMild.N/A84%30.45 "HgN/A
3:00 PM66 °FMild.N/A81%30.43 "HgN/A
12:00 PM67 °FMild.N/A80%30.44 "HgN/A
11:00 AM66 °FMild.N/A82%30.44 "HgN/A
Weather by CustomWeather, © 2016

See weather overviewHow to use our weather pages